Location: Lecco
(45.8566°N, 9.3977°E)
Time: 09:50:24
(UTC+02:00)

Transit 2A Rocket - Visible Passes

Search period start: 20 July 2019 00:00
Search period end: 30 July 2019 00:00
Orbit: 588 x 915 km, 66.7° (Epoch: 19 July)

Date Brightness Start Highest point End Pass type
(mag) Time Alt. Az. Time Alt. Az. Time Alt. Az.
20 Jul 7.6 03:00:57 10° ESE 03:03:01 12° ESE 03:05:04 10° E visible
20 Jul 5.5 04:38:58 11° SSW 04:44:47 70° ESE 04:50:27 10° NE visible
21 Jul 6.1 03:57:52 16° S 04:02:21 44° ESE 04:07:45 10° NE visible
22 Jul 6.7 03:16:44 17° SSE 03:20:01 28° ESE 03:24:49 10° NE visible
22 Jul 5.5 04:56:39 11° SW 05:02:23 58° NW 05:07:56 10° NNE visible
23 Jul 7.2 02:35:32 14° SE 02:37:48 17° ESE 02:41:23 10° ENE visible
23 Jul 5.2 04:15:27 20° SSW 04:19:47 88° WNW 04:25:28 10° NNE visible
24 Jul 5.5 03:34:13 28° S 03:37:18 60° ESE 03:42:52 10° NE visible
24 Jul 6.4 05:15:05 10° WSW 05:20:15 31° NW 05:25:09 10° NNE visible
25 Jul 6.2 02:52:56 29° SSE 02:54:55 37° ESE 03:00:06 10° NE visible
25 Jul 5.9 04:32:51 15° WSW 04:37:30 44° NW 04:42:50 10° NNE visible
26 Jul 6.7 02:11:37 22° ESE 02:12:37 23° ESE 02:17:02 10° ENE visible
26 Jul 5.4 03:51:31 27° SW 03:54:51 67° NW 04:00:26 10° NNE visible
27 Jul 7.2 01:30:15 14° ESE 01:30:25 14° ESE 01:33:17 10° ENE visible
27 Jul 5.2 03:10:09 41° SSW 03:12:18 80° ESE 03:17:55 10° NE visible
27 Jul 6.8 04:50:48 10° W 04:55:29 24° NW 04:59:56 10° NNE visible
28 Jul 5.6 02:28:45 45° SSE 02:29:50 51° ESE 02:35:17 10° NE visible
28 Jul 6.3 04:08:39 16° WSW 04:12:39 34° NW 04:17:40 10° NNE visible
29 Jul 6.2 01:47:19 32° ESE 01:47:28 32° ESE 01:52:26 10° NE visible
29 Jul 5.7 03:27:13 29° WSW 03:29:56 51° NW 03:35:20 10° NNE visible
29 Jul 7.4 05:10:44 10° WNW 05:13:47 14° NNW 05:16:43 10° N visible
